Miscellaneous Local Product
Issued by NWS North Platte, NE

Home | Current Version | Previous Version | Graphics & Text | Print | Product List | Glossary On
Versions: 1 2 3 4 5 6 7 8 9 10 11 12 13 14 15 16 17 18 19 20 21 22 23 24 25 26 27 28 29 30 31 32 33 34 35 36 37 38 39 40 41 42 43 44 45 46 47 48 49 50
238
AXUS43 KLBF 280610
MISLBF


WESTERN AND NORTH CENTRAL NEBRASKA HOURLY WEATHER ROUNDUP
NATIONAL WEATHER SERVICE NORTH PLATTE NE
100 AM CDT SAT MAY 28 2016

NOTE: "FAIR" INDICATES FEW OR NO CLOUDS BELOW 12,000 FEET WITH NO
SIGNIFICANT WEATHER AND/OR OBSTRUCTIONS TO VISIBILITY.

NOTE: STATIONS NOT REPORTING VARIABLES SUCH AS SKY/WEATHER OR
PRESSURE ARE PROVIDED BY RAWS AND APRS NETWORKS AND ARE NOT UNDER
NATIONAL WEATHER SERVICE QUALITY CONTROL.

...OBSERVATIONS IN AND NEAR THE EASTERN PANHANDLE OF NEBRASKA...

CITY           SKY/WX    TMP DP  RH WIND       PRES   REMARKS
PINE RIDGE     CLOUDY    46  43  89 E6        29.88S
CHADRON        PTCLDY    46  43  89 W6        29.88S
ALLIANCE       PTCLDY    43  43 100 W3        29.89S
SIDNEY         CLEAR     45  42  89 NW9       29.92R
CRESCENT LAKE    N/A     50  45  84 N7          N/A
BIG SPRINGS      N/A     52  50  92 CALM        N/A
$$

...OBSERVATIONS IN NORTHERN NEBRASKA AND FAR SOUTHERN SOUTH DAKOTA...

CITY           SKY/WX    TMP DP  RH WIND       PRES   REMARKS
WINNER         FAIR      57  53  86 NW6       29.80F
VALENTINE      CLOUDY    54  50  86 NW6       29.83S
THEDFORD       CLOUDY    57  51  82 N7        29.83S
AINSWORTH      CLOUDY    56  52  86 N6        29.80F
O`NEILL        LGT RAIN  60  57  92 SE5       29.77R
ORD            LGT RAIN  58  56  93 S9        29.75F
BROKEN BOW     LGT RAIN  56  54  93 W5        29.80R
BUTTE            N/A     59  56  89 NW9         N/A
CHAMBERS         N/A     57  55  93 CALM        N/A
EWING            N/A     60  57  90 CALM        N/A
$$

...OBSERVATIONS IN SOUTHWEST NEBRASKA AND FAR NORTHEAST COLORADO...

CITY           SKY/WX    TMP DP  RH WIND       PRES   REMARKS
WRAY           FAIR     N/A N/A N/A W6        29.89R
HOLYOKE        FAIR      54  48  82 NW8       29.89R
IMPERIAL       PTCLDY    53  48  83 NW14      29.84R
OGALLALA       CLOUDY    52  49  87 NW9       29.85R
NORTH PLATTE   CLOUDY    55  52  89 N7        29.81R
MCCOOK         MOCLDY    54  50  86 W6        29.79R
LEXINGTON      RAIN      58  55  92 NE23G30   29.78S
PAXTON           N/A     54  51  90 W3          N/A
STAPLETON        N/A     57  51  79 CALM        N/A
GOTHENBURG       N/A     56  51  83 NW5         N/A
CALLAWAY         N/A     58  55  90 N8          N/A
$$

...OBSERVATIONS IN CENTRAL LINCOLN COUNTY AREA...

CITY           SKY/WX    TMP DP  RH WIND       PRES   REMARKS
N.P. AIRPORT   CLOUDY    55  52  89 N7        29.81R
N.P. DOWNTOWN    N/A     58  53  82 N3          N/A
N.P. SOUTHEAST   N/A     58  52  81 N3          N/A
N.P. HILLCREST   N/A     57  52  83 NE10        N/A
$$

...SOME OBSERVATIONS FROM AROUND THE REGION...

CITY           SKY/WX    TMP DP  RH WIND       PRES   REMARKS
DENVER         PTCLDY    46  41  82 SW9       29.96F
LARAMIE        CLEAR     37  35  92 S5        30.01S WCI  33
CHEYENNE       CLEAR     44  38  79 W8        29.95F
SCOTTSBLUFF    CLEAR     47  43  86 N6        29.90F
RAPID CITY     CLEAR     46  43  89 NW3       29.86S
BISMARCK       CLOUDY    55  51  86 CALM      29.84R
PIERRE         CLOUDY    59  53  80 N3        29.80R
SIOUX FALLS    CLOUDY    63  57  81 N7        29.74S
OMAHA          CLOUDY    63  59  87 N3        29.71F
GRAND ISLAND   CLOUDY    57  55  93 NW6       29.75R
KANSAS CITY    CLOUDY    60  58  92 NE8       29.73F
WICHITA        MOCLDY    64  59  83 S15       29.69F
OKLAHOMA CITY  CLEAR     64  61  90 S9        29.78R
DALLAS         CLOUDY    68  64  87 E7        29.81F
AMARILLO       CLEAR     56  45  66 N10       29.91F
DODGE CITY     CLOUDY    56  51  84 W13       29.80R
HAYS           CLOUDY    55  48  76 E3        29.74S
GOODLAND       CLEAR     47  45  93 W9        29.86R
$$




USA.gov is the U.S. government's official web portal to all federal, state and local government web resources and services.